Total_Precipitation_Accumulation
0.00 0.00 0.00 0.00 0.03 0.06 0.17 0.23 0.06 0.01 0.00 0.00 0.00 0.00 0.00 0.00 0.01 0.00 0.00 0.00 0.00 0.00 0.00 0.00 0.00 0.01 0.02 0.05 0.05 0.06 0.05 0.01 0.01 0.01 0.03 0.06 0.03 0.01 0.00 0.00 0.00 0.00 0.00 0.00 0.01 0.01 0.01 0.00 0.00
0.00 0.00 0.00 0.00 0.01 0.02 0.17 0.26 0.08 0.03 0.01 0.00 0.00 0.00 0.00 0.00 0.00 0.00 0.00 0.00 0.00 0.00 0.00 0.00 0.00 0.01 0.01 0.03 0.05 0.07 0.06 0.03 0.02 0.04 0.06 0.07 0.04 0.01 0.00 0.00 0.00 0.00 0.00 0.00 0.00 0.01 0.00 0.00 0.00
0.00 0.00 0.00 0.00 0.00 0.01 0.09 0.14 0.03 0.01 0.00 0.00 0.00 0.00 0.00 0.00 0.00 0.00 0.00 0.00 0.00 0.00 0.00 0.01 0.01 0.01 0.01 0.02 0.03 0.07 0.09 0.06 0.05 0.08 0.09 0.07 0.06 0.03 0.02 0.01 0.02 0.02 0.00 0.00 0.00 0.01 0.01 0.00 0.00
0.00 0.00 0.00 0.00 0.00 0.02 0.05 0.04 0.03 0.02 0.00 0.00 0.00 0.00 0.00 0.00 0.00 0.00 0.00 0.00 0.00 0.00 0.00 0.00 0.02 0.02 0.02 0.02 0.02 0.04 0.09 0.08 0.06 0.08 0.11 0.09 0.10 0.12 0.07 0.03 0.04 0.04 0.02 0.01 0.01 0.00 0.00 0.01 0.01
0.00 0.00 0.00 0.00 0.01 0.04 0.06 0.03 0.02 0.01 0.00 0.00 0.00 0.00 0.00 0.00 0.00 0.00 0.00 0.00 0.00 0.00 0.00 0.00 0.02 0.02 0.01 0.01 0.03 0.03 0.04 0.06 0.04 0.05 0.05 0.04 0.07 0.14 0.11 0.07 0.05 0.05 0.03 0.02 0.01 0.00 0.01 0.01 0.01
0.00 0.00 0.00 0.00 0.01 0.03 0.05 0.03 0.02 0.02 0.00 0.00 0.00 0.00 0.00 0.00 0.00 0.00 0.00 0.00 0.00 0.00 0.00 0.00 0.01 0.01 0.00 0.00 0.02 0.03 0.03 0.02 0.01 0.01 0.00 0.01 0.02 0.03 0.06 0.06 0.06 0.04 0.02 0.02 0.01 0.01 0.01 0.01 0.02
0.00 0.00 0.00 0.00 0.00 0.00 0.02 0.02 0.02 0.01 0.00 0.00 0.00 0.00 0.00 0.00 0.00 0.00 0.00 0.00 0.00 0.00 0.00 0.00 0.00 0.01 0.00 0.00 0.01 0.02 0.02 0.02 0.01 0.00 0.00 0.01 0.01 0.02 0.04 0.05 0.05 0.05 0.04 0.03 0.02 0.02 0.02 0.02 0.02
0.00 0.00 0.00 0.00 0.00 0.00 0.00 0.01 0.01 0.01 0.01 0.01 0.00 0.01 0.01 0.00 0.00 0.00 0.00 0.00 0.00 0.00 0.00 0.00 0.00 0.01 0.01 0.01 0.01 0.02 0.02 0.01 0.01 0.00 0.00 0.00 0.01 0.01 0.03 0.03 0.03 0.06 0.07 0.04 0.03 0.02 0.02 0.03 0.02
0.00 0.00 0.00 0.00 0.00 0.00 0.00 0.01 0.01 0.01 0.02 0.02 0.00 0.01 0.01 0.00 0.00 0.00 0.00 0.00 0.00 0.00 0.00 0.00 0.00 0.01 0.01 0.01 0.00 0.01 0.01 0.01 0.01 0.02 0.02 0.02 0.01 0.03 0.06 0.04 0.05 0.05 0.07 0.07 0.06 0.06 0.06 0.05 0.02
0.00 0.00 0.00 0.00 0.00 0.00 0.00 0.01 0.01 0.01 0.02 0.01 0.01 0.01 0.01 0.00 0.00 0.00 0.00 0.00 0.00 0.00 0.00 0.00 0.00 0.00 0.00 0.00 0.00 0.00 0.00 0.00 0.00 0.01 0.04 0.06 0.07 0.05 0.03 0.05 0.07 0.14 0.20 0.16 0.13 0.15 0.10 0.08 0.06
0.00 0.00 0.00 0.00 0.00 0.00 0.00 0.00 0.00 0.01 0.03 0.03 0.02 0.02 0.01 0.00 0.00 0.00 0.00 0.00 0.00 0.00 0.00 0.00 0.00 0.00 0.00 0.00 0.00 0.00 0.00 0.00 0.00 0.00 0.00 0.01 0.01 0.01 0.00 0.02 0.08 0.12 0.19 0.18 0.25 0.28 0.24 0.21 0.18
0.00 0.00 0.00 0.00 0.00 0.00 0.00 0.00 0.00 0.02 0.07 0.12 0.11 0.05 0.01 0.00 0.00 0.00 0.00 0.00 0.00 0.00 0.00 0.00 0.00 0.00 0.00 0.00 0.00 0.00 0.00 0.00 0.00 0.00 0.00 0.00 0.00 0.00 0.02 0.07 0.13 0.13 0.14 0.22 0.19 0.24 0.22 0.11 0.07
0.00 0.00 0.00 0.00 0.00 0.00 0.00 0.00 0.01 0.01 0.04 0.17 0.24 0.17 0.03 0.00 0.00 0.00 0.00 0.00 0.00 0.00 0.00 0.00 0.00 0.00 0.00 0.00 0.00 0.00 0.00 0.00 0.00 0.00 0.00 0.00 0.01 0.04 0.08 0.07 0.09 0.05 0.09 0.14 0.12 0.09 0.12 0.12 0.07
0.00 0.00 0.00 0.00 0.00 0.00 0.00 0.00 0.00 0.02 0.03 0.13 0.22 0.20 0.06 0.01 0.00 0.00 0.00 0.00 0.00 0.00 0.00 0.00 0.00 0.00 0.00 0.00 0.00 0.00 0.00 0.00 0.00 0.00 0.00 0.00 0.02 0.08 0.13 0.12 0.10 0.08 0.10 0.16 0.17 0.15 0.26 0.19 0.12
0.00 0.00 0.00 0.00 0.00 0.00 0.00 0.00 0.01 0.03 0.02 0.08 0.17 0.17 0.07 0.02 0.01 0.00 0.00 0.00 0.00 0.00 0.00 0.01 0.02 0.00 0.00 0.00 0.00 0.01 0.02 0.01 0.01 0.01 0.01 0.02 0.04 0.10 0.17 0.19 0.16 0.17 0.16 0.21 0.23 0.26 0.31 0.16 0.13
0.00 0.00 0.00 0.00 0.00 0.00 0.00 0.00 0.00 0.00 0.01 0.03 0.11 0.20 0.15 0.12 0.12 0.07 0.02 0.01 0.01 0.00 0.01 0.03 0.06 0.02 0.01 0.01 0.02 0.04 0.05 0.04 0.04 0.04 0.06 0.09 0.12 0.16 0.23 0.23 0.18 0.25 0.30 0.30 0.30 0.33 0.28 0.21 0.15
0.00 0.00 0.00 0.00 0.00 0.00 0.00 0.00 0.00 0.01 0.02 0.05 0.10 0.20 0.30 0.36 0.41 0.36 0.19 0.09 0.05 0.03 0.03 0.04 0.04 0.03 0.04 0.05 0.06 0.10 0.13 0.11 0.13 0.16 0.17 0.22 0.23 0.26 0.33 0.29 0.31 0.34 0.34 0.35 0.24 0.28 0.25 0.27 0.23
0.00 0.00 0.00 0.00 0.00 0.00 0.00 0.00 0.00 0.00 0.02 0.07 0.18 0.34 0.49 0.72 0.90 0.70 0.42 0.18 0.12 0.11 0.11 0.13 0.14 0.11 0.12 0.14 0.14 0.19 0.22 0.22 0.26 0.32 0.38 0.41 0.38 0.38 0.44 0.41 0.42 0.38 0.39 0.37 0.34 0.36 0.38 0.37 0.34
0.00 0.00 0.00 0.00 0.00 0.00 0.00 0.00 0.00 0.00 0.01 0.04 0.11 0.32 0.55 0.59 0.66 0.57 0.36 0.25 0.24 0.34 0.37 0.39 0.40 0.35 0.35 0.36 0.39 0.46 0.49 0.49 0.49 0.48 0.46 0.45 0.41 0.41 0.49 0.42 0.43 0.35 0.30 0.34 0.36 0.41 0.38 0.39 0.47
0.00 0.00 0.00 0.00 0.00 0.00 0.00 0.00 0.00 0.01 0.01 0.02 0.04 0.10 0.22 0.32 0.36 0.37 0.32 0.33 0.50 0.70 0.70 0.68 0.62 0.59 0.66 0.77 0.86 0.94 0.96 0.87 0.76 0.69 0.62 0.56 0.51 0.49 0.48 0.46 0.38 0.33 0.38 0.46 0.47 0.56 0.50 0.36 0.44
0.00 0.00 0.00 0.00 0.00 0.00 0.00 0.00 0.00 0.01 0.02 0.06 0.10 0.16 0.22 0.29 0.36 0.42 0.44 0.48 0.56 0.64 0.70 0.80 0.83 0.84 0.89 0.99 1.08 1.12 1.12 1.07 0.96 0.83 0.74 0.66 0.55 0.48 0.47 0.44 0.41 0.47 0.52 0.55 0.57 0.57 0.56 0.45 0.45
0.00 0.00 0.00 0.00 0.00 0.00 0.00 0.00 0.00 0.00 0.02 0.06 0.12 0.19 0.26 0.32 0.36 0.45 0.51 0.52 0.54 0.57 0.68 0.85 0.95 0.97 1.03 1.10 1.13 1.11 1.10 1.00 0.93 0.87 0.77 0.67 0.57 0.51 0.46 0.43 0.43 0.43 0.44 0.48 0.43 0.51 0.62 0.59 0.49
0.00 0.00 0.00 0.00 0.00 0.00 0.00 0.00 0.00 0.00 0.01 0.04 0.11 0.19 0.31 0.37 0.38 0.40 0.47 0.49 0.50 0.58 0.69 0.79 0.88 0.91 0.93 0.93 0.93 0.93 0.90 0.87 0.84 0.75 0.69 0.59 0.52 0.50 0.46 0.41 0.39 0.35 0.34 0.42 0.47 0.53 0.57 0.60 0.57
0.00 0.00 0.00 0.00 0.00 0.00 0.00 0.00 0.00 0.00 0.01 0.05 0.19 0.30 0.42 0.51 0.53 0.54 0.55 0.56 0.57 0.66 0.75 0.81 0.81 0.78 0.75 0.72 0.73 0.74 0.75 0.77 0.74 0.69 0.66 0.58 0.50 0.47 0.47 0.46 0.42 0.38 0.39 0.46 0.49 0.51 0.48 0.52 0.55
0.00 0.01 0.06 0.03 0.00 0.00 0.00 0.00 0.01 0.02 0.02 0.07 0.24 0.44 0.56 0.55 0.52 0.51 0.52 0.55 0.58 0.58 0.58 0.60 0.58 0.53 0.48 0.46 0.46 0.47 0.47 0.50 0.53 0.53 0.50 0.42 0.35 0.33 0.32 0.33 0.38 0.38 0.41 0.40 0.40 0.45 0.48 0.52 0.54
0.02 0.05 0.20 0.17 0.04 0.02 0.01 0.01 0.06 0.09 0.12 0.24 0.38 0.49 0.51 0.46 0.43 0.41 0.39 0.38 0.40 0.40 0.39 0.42 0.43 0.45 0.44 0.39 0.36 0.30 0.26 0.26 0.26 0.27 0.28 0.26 0.23 0.21 0.21 0.26 0.34 0.37 0.38 0.39 0.40 0.39 0.41 0.46 0.49
0.05 0.09 0.11 0.24 0.18 0.12 0.02 0.02 0.09 0.15 0.29 0.52 0.68 0.68 0.60 0.46 0.38 0.33 0.29 0.26 0.25 0.27 0.31 0.36 0.40 0.43 0.46 0.44 0.36 0.29 0.22 0.19 0.18 0.17 0.19 0.20 0.21 0.17 0.17 0.20 0.26 0.35 0.44 0.48 0.47 0.45 0.45 0.50 0.55
0.03 0.05 0.07 0.20 0.21 0.19 0.06 0.04 0.13 0.35 0.49 0.61 0.71 0.65 0.49 0.37 0.29 0.24 0.21 0.19 0.18 0.20 0.24 0.32 0.36 0.36 0.37 0.36 0.33 0.26 0.20 0.17 0.16 0.13 0.13 0.12 0.12 0.14 0.17 0.21 0.25 0.27 0.31 0.34 0.34 0.39 0.43 0.47 0.49
0.05 0.08 0.15 0.23 0.22 0.25 0.21 0.17 0.22 0.36 0.51 0.60 0.61 0.50 0.35 0.26 0.19 0.17 0.17 0.18 0.18 0.17 0.22 0.29 0.35 0.38 0.39 0.37 0.35 0.27 0.19 0.16 0.14 0.10 0.08 0.10 0.09 0.10 0.12 0.15 0.14 0.12 0.11 0.11 0.12 0.15 0.19 0.21 0.20
0.03 0.07 0.16 0.26 0.24 0.24 0.26 0.19 0.13 0.16 0.24 0.32 0.34 0.30 0.25 0.20 0.18 0.20 0.22 0.22 0.20 0.20 0.26 0.32 0.36 0.41 0.44 0.45 0.44 0.38 0.29 0.24 0.19 0.13 0.07 0.04 0.04 0.06 0.07 0.07 0.04 0.03 0.02 0.03 0.04 0.04 0.05 0.06 0.06